Location: Bottenau
(48.5138°N, 8.0462°E)
Time: 05:28:55
(UTC+00:00)

OBJECT-B - Pass Details

Date: 18 April 2021
Orbit: 415 x 424 km, 97.0° (Epoch: 25 April)

Event Time Altitude Azimuth Distance (km) Brightness Sun altitude
Exits shadow 19:45:44 - 190° (S) 2,225 4.2 -13.0°
Reaches altitude 10° 19:47:34 10° 200° (SSW) 1,499 3.4 -13.3°
Maximum altitude 19:50:26 30° 264° (W) 793 2.7 -13.7°
Drops below altitude 10° 19:53:20 10° 327° (NNW) 1,517 4.7 -14.0°
Sets 19:55:31 0° 339° (NNW) 2,390 5.6 -14.3°
